Wetbulb
72.22 75.32 73.09 73.32 73.21 73.28 73.35 73.47 74.16 74.35 74.51 74.65 74.42 74.49 74.76 74.85 74.29 74.50 74.79 74.93 75.27 75.67 75.53 74.25 73.98 73.99 73.86 73.67 73.94 73.40 72.97 73.16 74.08 74.14 73.93 73.30 73.49 73.52 73.39 73.23 72.84 72.70 72.81
74.06 75.63 72.32 72.88 73.16 73.31 73.43 73.47 73.91 74.63 74.90 74.70 74.37 74.39 74.41 74.58 74.13 74.40 74.74 74.81 75.27 75.49 75.26 74.31 73.72 73.57 73.27 72.89 73.26 73.01 72.66 72.72 73.24 73.52 73.90 73.84 73.18 73.10 72.95 72.50 72.65 72.36 73.24
74.51 75.40 74.92 72.55 72.80 73.03 73.39 73.51 74.18 75.14 75.13 75.14 74.64 74.43 74.56 74.53 74.29 74.23 74.37 74.28 75.03 75.57 75.52 74.59 74.06 73.03 72.44 72.40 72.40 72.56 72.38 72.45 72.79 73.19 73.60 73.65 73.48 72.82 72.50 71.64 72.42 72.97 72.82
75.07 75.48 75.61 72.71 72.86 72.97 72.92 73.26 73.76 75.07 75.32 75.28 74.81 74.51 74.47 74.47 74.40 74.22 74.09 73.84 74.70 75.49 75.69 74.73 74.43 73.68 72.48 71.72 71.80 71.88 71.95 72.07 72.15 72.81 73.42 72.98 72.73 72.43 72.58 71.69 71.84 72.06 72.60
74.70 75.59 75.49 72.38 72.51 72.74 72.54 72.85 73.13 73.82 74.47 74.80 74.65 74.77 74.68 74.60 74.58 74.44 73.83 73.81 74.64 75.63 75.34 74.64 74.93 74.36 72.09 70.65 70.85 71.21 71.46 71.51 71.51 71.85 73.26 73.26 72.96 72.35 72.31 71.74 71.24 71.80 71.60
75.10 75.31 72.78 71.90 72.31 72.67 72.65 72.67 72.94 72.87 72.99 73.60 74.13 74.75 74.69 74.56 74.68 74.38 73.55 73.91 75.00 75.50 75.09 74.99 74.69 73.79 71.47 70.36 70.34 70.83 70.89 70.82 70.31 73.00 72.69 72.60 72.92 72.13 71.87 72.47 71.76 71.69 71.36
74.27 75.37 75.42 71.11 72.00 72.61 72.89 72.75 72.48 72.35 72.09 72.61 73.42 73.97 74.31 74.60 74.55 73.85 73.32 73.54 74.25 74.71 74.54 74.58 74.09 72.83 71.26 70.56 70.56 70.31 70.14 70.13 72.16 72.71 72.38 72.69 73.06 72.07 71.63 72.06 71.61 70.86 71.02
74.60 75.52 75.42 72.31 71.84 72.15 72.28 72.14 71.77 71.63 71.66 71.77 72.38 73.09 73.84 73.87 73.66 73.48 73.10 73.23 73.58 73.64 73.60 73.30 72.41 71.96 70.86 70.50 70.47 69.58 69.32 69.24 71.16 72.29 72.32 72.60 71.50 71.64 71.86 72.23 71.53 70.82 70.86
75.17 75.68 76.45 75.78 74.33 70.92 70.76 70.73 70.51 70.98 71.16 71.35 71.26 71.74 72.48 72.43 72.42 72.81 72.84 73.09 73.20 72.87 72.71 72.46 71.93 71.02 70.84 70.45 69.78 68.90 68.19 68.85 71.91 72.24 72.11 72.66 70.60 70.48 71.28 72.33 71.67 71.18 70.64
73.59 75.50 75.65 76.15 76.26 76.32 75.89 70.07 69.95 70.22 70.38 70.46 70.79 70.62 70.69 71.23 71.83 71.88 71.52 72.36 72.71 71.77 71.40 72.04 71.49 70.85 70.64 70.00 69.29 68.42 68.00 68.37 71.43 72.04 72.19 72.41 70.20 70.38 70.92 72.33 71.99 71.24 70.76
69.48 72.82 75.02 75.96 76.00 76.34 76.24 74.68 71.11 70.38 70.51 70.20 71.00 70.29 70.15 73.47 73.62 73.53 71.53 70.66 70.96 70.13 70.65 70.96 70.83 69.93 69.68 69.40 68.78 68.24 67.80 71.47 71.92 71.94 71.85 68.06 68.68 70.33 71.14 72.15 71.57 71.20 70.85
60.49 66.29 73.12 75.01 75.50 75.71 74.73 75.28 75.29 75.10 74.76 74.54 74.38 74.40 73.80 73.87 73.82 72.75 71.36 69.70 69.88 68.85 68.56 69.17 69.64 69.08 69.32 71.79 71.69 68.80 71.29 71.52 71.74 71.67 71.68 67.78 68.14 69.65 70.46 71.15 71.07 71.22 70.65
59.39 60.53 67.07 73.07 74.88 75.13 74.77 75.00 74.83 75.33 74.53 74.10 74.68 74.62 74.60 73.51 73.86 73.43 73.29 73.17 73.22 69.93 72.56 70.91 71.67 72.33 71.93 71.97 71.37 71.38 71.18 71.54 71.44 71.20 70.72 66.98 68.08 69.73 70.38 70.80 71.22 71.32 70.64
60.76 64.28 65.86 69.10 71.79 72.92 74.30 73.77 74.42 72.21 72.08 71.89 72.38 73.07 73.20 72.60 72.22 72.79 72.22 73.05 72.40 72.54 72.20 72.75 72.35 72.10 72.13 72.52 72.35 72.01 71.91 71.35 71.05 70.87 70.62 66.63 67.12 69.02 70.18 70.78 71.51 71.17 70.87
58.45 59.63 61.28 62.65 65.17 69.41 69.81 70.53 72.21 71.59 71.21 71.16 71.63 71.24 71.94 71.47 72.02 71.53 71.54 71.21 71.27 72.60 72.55 72.10 71.95 72.12 72.04 72.44 72.23 71.82 71.63 71.65 71.53 70.92 71.00 65.94 65.67 67.63 69.22 70.36 71.00 71.44 71.17
55.86 55.67 56.93 58.26 59.90 62.56 61.63 64.63 68.15 69.61 70.18 70.07 69.77 69.71 70.45 70.94 70.85 70.42 71.26 71.86 71.91 72.02 72.19 72.12 70.90 70.86 71.08 71.47 70.78 70.83 71.32 71.46 71.46 71.57 71.07 70.87 64.60 65.47 67.39 69.08 70.13 71.46 71.85
54.52 54.22 53.55 55.30 57.01 58.63 60.13 61.41 61.17 62.85 63.23 62.53 62.76 61.72 61.52 61.36 61.25 70.21 70.97 70.25 70.74 71.91 72.04 71.39 71.09 70.45 69.86 70.07 69.55 70.26 70.57 71.36 71.19 71.18 71.35 71.32 69.72 63.23 64.19 66.47 68.53 70.05 71.25
51.59 51.60 51.84 52.06 53.58 55.44 57.02 58.31 58.83 60.07 59.66 58.55 59.90 59.38 58.92 58.66 59.52 61.25 65.43 68.84 69.60 70.26 69.49 68.96 69.67 69.28 68.38 69.04 68.60 69.10 70.02 70.56 70.77 71.11 71.13 71.16 70.90 70.13 64.48 63.79 65.67 68.10 68.88
49.66 49.53 49.72 49.98 50.06 52.20 54.93 57.23 57.18 57.92 58.60 58.02 59.01 57.81 57.02 57.85 58.42 59.61 62.87 61.63 61.09 65.91 67.43 68.38 68.28 68.99 67.00 66.79 67.56 68.08 69.12 69.53 69.57 70.10 69.83 70.73 71.25 70.67 70.10 64.70 63.08 64.09 65.83
49.35 49.34 49.30 49.57 49.61 51.07 52.01 54.82 56.54 55.51 56.87 56.65 55.06 54.41 54.69 54.96 55.50 56.73 58.65 59.72 61.22 61.54 64.07 66.21 67.24 67.91 66.56 65.07 65.44 66.40 66.74 68.09 69.71 68.89 69.67 69.44 70.50 70.79 71.16 69.97 68.21 67.50 62.21
48.91 48.40 48.04 47.99 48.40 48.77 49.31 49.47 51.17 50.41 53.80 54.58 52.88 52.71 52.59 52.99 54.03 54.94 55.67 56.75 58.13 58.91 59.66 60.26 61.59 64.32 66.01 65.73 63.32 63.74 62.46 62.09 67.99 68.40 69.07 69.18 69.28 70.17 70.70 70.51 70.42 70.18 67.37
47.69 47.34 47.63 47.33 47.70 47.41 47.98 48.24 48.78 49.59 51.47 51.61 50.89 51.19 51.03 51.12 52.28 52.35 53.15 53.96 55.29 55.68 56.90 59.18 59.79 58.44 61.41 63.93 62.12 62.00 59.01 61.12 65.96 67.03 68.67 68.41 68.92 69.21 69.21 70.02 69.67 70.02 70.05
44.81 45.26 45.37 45.27 45.77 46.24 46.79 47.96 48.48 49.69 49.59 49.16 48.27 48.67 49.11 49.78 50.49 50.96 51.35 52.18 52.87 53.55 53.98 55.76 57.08 57.93 56.53 58.75 62.05 61.05 58.21 57.64 62.06 66.95 65.94 66.90 67.79 67.67 68.21 68.72 68.69 69.13 69.67
45.64 45.92 45.96 45.53 45.11 44.89 45.71 45.39 44.85 45.26 44.69 46.07 46.80 47.31 47.95 48.56 48.19 48.97 49.72 49.59 49.57 51.13 51.83 53.01 54.11 55.07 53.88 53.05 57.10 59.77 62.54 63.73 59.52 59.09 62.76 64.63 66.23 64.67 66.63 66.31 66.21 66.71 66.83
45.75 45.31 45.03 44.85 44.04 43.67 44.22 44.48 44.41 43.55 44.10 45.07 45.70 45.24 46.49 46.89 47.43 46.93 46.42 45.93 46.51 46.97 48.27 47.86 49.61 51.47 53.34 53.79 54.52 55.29 56.59 62.00 64.23 60.73 57.01 60.20 62.05 62.69 64.32 64.30 64.87 65.59 66.45
44.78 44.45 44.50 44.02 43.25 43.48 43.36 43.14 42.77 42.03 41.76 42.01 42.24 42.09 43.11 43.99 45.30 45.95 44.58 43.76 43.32 43.39 44.32 45.19 45.98 47.12 46.71 48.22 51.19 53.53 53.49 53.71 58.00 60.18 58.92 59.68 59.66 62.03 63.33 64.10 65.03 64.79 65.83
MSLP
1008.31 1009.48 1010.56 1010.61 1010.75 1010.99 1011.23 1011.32 1011.68 1012.02 1012.36 1012.46 1012.51 1012.57 1012.58 1012.75 1012.83 1012.98 1013.35 1013.65 1013.85 1014.04 1014.24 1014.53 1014.68 1014.85 1014.92 1014.96 1015.15 1015.36 1015.44 1015.49 1015.48 1015.48 1015.60 1015.76 1015.90 1016.07 1016.35 1016.50 1016.31 1015.79 1016.86
1008.37 1009.38 1010.45 1010.57 1010.76 1010.95 1011.27 1011.44 1011.70 1012.09 1012.40 1012.66 1012.64 1012.71 1012.76 1012.85 1012.88 1013.00 1013.22 1013.54 1013.88 1014.16 1014.39 1014.62 1014.79 1014.91 1015.04 1015.10 1015.26 1015.40 1015.48 1015.52 1015.60 1015.71 1015.83 1015.92 1016.06 1016.37 1016.61 1016.61 1016.42 1016.35 1017.00
1008.76 1009.31 1010.51 1010.77 1010.88 1011.06 1011.29 1011.54 1011.76 1012.04 1012.35 1012.67 1012.81 1012.80 1012.85 1013.05 1013.15 1013.15 1013.24 1013.42 1013.75 1014.02 1014.39 1014.71 1014.93 1015.13 1015.20 1015.27 1015.41 1015.49 1015.52 1015.56 1015.77 1015.89 1015.82 1014.73 1015.36 1016.65 1016.83 1016.91 1016.87 1016.86 1017.13
1008.77 1009.20 1010.00 1011.14 1011.17 1011.26 1011.47 1011.61 1011.78 1011.91 1012.21 1012.54 1012.79 1012.96 1013.09 1013.20 1013.32 1013.45 1013.57 1013.64 1013.76 1013.94 1014.18 1014.60 1014.94 1015.16 1015.33 1015.39 1015.47 1015.58 1015.72 1015.77 1015.94 1016.07 1015.26 1014.42 1015.07 1016.70 1017.00 1017.16 1017.13 1017.19 1017.34
1009.13 1009.38 1010.14 1011.36 1011.61 1011.72 1011.83 1011.93 1011.99 1012.00 1012.18 1012.42 1012.74 1012.93 1013.15 1013.31 1013.43 1013.50 1013.66 1013.90 1014.07 1014.15 1014.23 1014.48 1014.72 1015.09 1015.31 1015.49 1015.63 1015.67 1015.77 1015.97 1016.08 1015.91 1014.76 1014.89 1014.94 1016.46 1016.83 1017.15 1017.44 1017.47 1017.48
1009.58 1009.81 1011.07 1011.44 1011.54 1011.80 1011.86 1011.95 1011.98 1012.12 1012.35 1012.50 1012.66 1012.84 1013.11 1013.31 1013.50 1013.84 1014.01 1014.03 1014.18 1014.39 1014.41 1014.63 1014.84 1015.06 1015.25 1015.41 1015.66 1015.83 1015.91 1015.95 1016.10 1014.76 1014.89 1015.35 1015.18 1016.47 1016.71 1016.95 1017.13 1017.34 1017.53
1009.79 1010.02 1010.60 1011.43 1011.66 1011.84 1012.01 1012.12 1012.19 1012.31 1012.44 1012.62 1012.78 1012.92 1013.12 1013.34 1013.56 1013.83 1014.23 1014.34 1014.31 1014.39 1014.65 1014.79 1014.94 1015.19 1015.37 1015.67 1015.78 1015.88 1015.97 1016.03 1015.43 1014.64 1014.94 1015.21 1015.35 1016.42 1016.57 1016.80 1017.02 1017.47 1017.58
1010.00 1010.24 1010.42 1011.32 1011.72 1011.94 1012.07 1012.22 1012.39 1012.54 1012.64 1012.85 1012.95 1013.10 1013.18 1013.43 1013.69 1013.93 1014.10 1014.40 1014.53 1014.51 1014.66 1015.01 1015.24 1015.54 1015.71 1015.76 1015.94 1016.02 1016.10 1016.18 1015.64 1014.72 1014.97 1015.22 1015.77 1016.34 1016.54 1016.69 1016.89 1017.22 1017.44
1010.28 1010.47 1010.57 1010.80 1011.26 1011.93 1012.13 1012.35 1012.52 1012.67 1012.78 1012.86 1013.06 1013.28 1013.51 1013.58 1013.72 1013.96 1014.15 1014.30 1014.43 1014.72 1014.86 1015.03 1015.35 1015.66 1015.81 1015.87 1015.96 1016.11 1016.24 1016.22 1015.42 1014.58 1014.87 1014.88 1015.84 1016.31 1016.43 1016.62 1016.70 1017.01 1017.37
1010.38 1010.39 1010.58 1010.73 1010.93 1011.08 1011.32 1012.09 1012.39 1012.57 1012.70 1012.82 1013.03 1013.23 1013.57 1013.73 1013.80 1013.89 1014.10 1014.23 1014.30 1014.44 1014.74 1014.95 1015.15 1015.37 1015.66 1015.93 1016.01 1016.12 1016.26 1016.37 1015.70 1014.57 1014.69 1014.61 1015.69 1016.23 1016.29 1016.37 1016.56 1016.83 1017.09
1009.91 1010.25 1010.56 1010.69 1010.71 1010.95 1011.10 1011.28 1012.08 1012.47 1012.78 1012.88 1012.95 1013.10 1013.31 1013.00 1013.03 1013.30 1013.36 1013.68 1014.03 1014.34 1014.60 1014.73 1014.79 1015.00 1015.29 1015.55 1015.85 1015.99 1016.19 1015.26 1014.77 1014.51 1014.23 1015.18 1015.90 1016.09 1016.19 1016.27 1016.53 1016.64 1016.78
1009.80 1009.95 1010.37 1010.60 1010.69 1010.83 1010.89 1011.16 1011.34 1011.35 1011.68 1011.98 1012.09 1012.11 1012.59 1012.43 1012.37 1012.52 1012.68 1013.46 1013.88 1014.17 1014.52 1014.59 1014.58 1014.84 1015.06 1014.33 1014.36 1015.52 1015.27 1014.62 1014.33 1014.18 1014.32 1015.14 1015.91 1016.12 1016.06 1016.15 1016.29 1016.53 1016.55
1010.41 1010.54 1010.72 1010.72 1010.63 1010.71 1010.57 1010.67 1010.86 1011.11 1011.53 1011.82 1011.89 1011.82 1011.74 1011.77 1012.02 1012.29 1012.22 1012.70 1013.13 1013.84 1013.75 1014.29 1014.34 1014.16 1013.83 1013.68 1013.48 1013.58 1013.96 1014.35 1014.04 1013.99 1014.19 1015.08 1015.57 1015.81 1015.92 1015.92 1015.94 1016.04 1016.26
1011.55 1012.10 1012.31 1012.03 1011.42 1011.16 1010.90 1010.56 1010.87 1011.90 1012.00 1012.09 1012.13 1012.14 1012.07 1012.06 1012.17 1011.85 1011.45 1011.77 1012.16 1012.33 1012.78 1013.14 1013.56 1013.45 1013.15 1013.19 1013.40 1013.52 1013.74 1013.78 1013.53 1013.74 1014.07 1014.82 1015.40 1015.50 1015.47 1015.53 1015.53 1015.54 1015.78
1013.43 1013.73 1013.59 1013.37 1012.81 1012.09 1011.80 1011.75 1011.77 1012.06 1012.06 1012.12 1012.20 1012.31 1012.25 1012.21 1012.07 1012.08 1011.98 1011.98 1012.13 1012.07 1012.31 1012.57 1012.78 1012.85 1013.01 1012.75 1013.08 1013.30 1013.28 1013.39 1013.42 1013.49 1013.66 1014.36 1014.83 1015.02 1015.12 1015.15 1015.10 1015.26 1015.35
1014.51 1014.61 1014.63 1014.22 1014.04 1013.37 1013.15 1012.89 1012.76 1012.46 1012.42 1012.35 1012.45 1012.46 1012.36 1012.19 1012.06 1012.05 1012.01 1011.91 1011.76 1011.64 1011.95 1012.27 1012.71 1012.78 1012.48 1012.66 1012.83 1012.86 1012.97 1013.22 1013.10 1013.21 1013.25 1013.33 1014.16 1014.35 1014.49 1014.68 1014.76 1014.71 1014.81
1015.33 1015.48 1015.37 1014.83 1014.71 1014.24 1013.82 1013.62 1013.71 1013.63 1013.49 1013.52 1013.49 1013.46 1013.18 1013.18 1013.00 1012.07 1012.05 1011.69 1011.25 1011.16 1011.48 1012.09 1012.21 1012.39 1012.74 1012.51 1012.40 1012.62 1012.72 1012.88 1012.95 1012.82 1012.89 1012.83 1012.97 1013.80 1013.84 1014.00 1014.18 1014.19 1014.27
1016.49 1016.31 1016.28 1015.99 1015.50 1015.03 1014.53 1014.15 1014.09 1014.04 1013.98 1014.10 1014.08 1014.00 1013.84 1013.61 1013.37 1013.16 1012.53 1012.10 1011.88 1011.74 1011.73 1011.73 1011.61 1011.76 1011.65 1011.76 1012.40 1012.10 1012.54 1012.46 1012.52 1012.23 1012.26 1012.30 1012.18 1012.43 1013.01 1013.19 1013.44 1013.58 1013.73
1017.22 1017.08 1016.79 1016.50 1016.05 1015.52 1015.07 1014.70 1014.46 1014.39 1014.14 1014.32 1014.28 1014.33 1014.52 1014.10 1013.83 1013.41 1012.84 1012.91 1012.81 1012.15 1011.94 1012.14 1012.21 1011.78 1011.53 1011.14 1011.75 1012.01 1011.75 1011.87 1011.99 1011.66 1011.66 1011.18 1011.44 1011.67 1011.71 1011.90 1012.49 1012.89 1013.06
1017.69 1017.59 1017.32 1017.01 1016.76 1016.24 1015.75 1015.12 1014.60 1014.59 1014.52 1014.69 1014.88 1015.10 1015.06 1014.65 1014.41 1014.00 1013.37 1013.16 1012.75 1012.81 1012.40 1011.93 1011.29 1011.13 1011.52 1011.62 1011.54 1011.35 1011.00 1010.90 1010.77 1010.78 1010.64 1010.38 1010.52 1010.58 1010.81 1011.15 1011.65 1011.97 1012.40
1018.34 1018.15 1017.94 1017.70 1017.53 1016.97 1016.39 1015.97 1015.52 1015.52 1015.15 1015.04 1015.43 1015.72 1015.64 1015.31 1014.94 1014.35 1013.84 1013.55 1013.20 1012.79 1012.81 1012.67 1012.19 1011.47 1010.76 1010.84 1011.14 1010.80 1010.10 1010.72 1009.47 1009.86 1009.71 1009.62 1009.74 1009.87 1009.92 1010.49 1010.69 1010.73 1011.16
1018.88 1018.84 1018.64 1018.50 1018.33 1018.05 1017.52 1017.23 1016.98 1016.54 1016.01 1016.00 1016.10 1015.99 1016.12 1015.95 1015.50 1014.91 1014.67 1014.16 1013.80 1013.32 1012.88 1012.52 1012.20 1012.08 1011.36 1010.92 1010.53 1010.69 1010.08 1009.20 1009.09 1008.21 1008.95 1009.40 1008.91 1008.99 1009.24 1009.23 1010.10 1010.36 1010.31
1019.68 1019.70 1019.63 1019.61 1019.38 1019.17 1018.71 1017.87 1017.36 1016.82 1016.54 1016.31 1016.49 1016.27 1016.43 1016.31 1016.08 1015.74 1015.21 1014.75 1014.33 1013.81 1013.07 1012.93 1012.39 1011.99 1011.83 1011.30 1010.87 1010.59 1009.73 1008.41 1007.39 1007.45 1008.57 1008.54 1008.64 1008.38 1008.54 1007.74 1009.27 1009.59 1009.29
1019.87 1020.06 1019.99 1020.00 1019.96 1019.81 1019.56 1018.97 1018.51 1017.83 1017.41 1017.50 1017.22 1016.99 1016.68 1016.50 1016.39 1016.15 1015.72 1015.34 1014.96 1014.35 1013.56 1013.44 1012.90 1012.38 1012.24 1011.66 1011.25 1010.56 1009.84 1009.08 1008.12 1007.74 1008.29 1008.18 1008.10 1007.89 1007.53 1007.13 1008.21 1008.67 1008.16
1019.88 1020.06 1020.30 1020.25 1020.35 1020.39 1020.19 1019.97 1019.15 1018.72 1018.55 1018.13 1017.86 1017.61 1017.02 1016.60 1016.34 1016.30 1016.36 1016.28 1015.55 1015.24 1014.48 1014.36 1014.11 1013.18 1012.24 1011.38 1011.10 1010.88 1010.19 1009.23 1008.49 1008.22 1007.53 1007.47 1007.57 1007.42 1007.02 1006.32 1006.80 1006.51 1006.75
1020.16 1020.45 1020.52 1020.35 1020.45 1020.54 1020.42 1020.35 1020.06 1019.55 1019.18 1018.56 1018.38 1018.10 1017.66 1017.26 1016.58 1016.31 1016.48 1016.46 1016.13 1015.63 1014.88 1014.64 1014.41 1013.78 1013.14 1012.61 1011.69 1010.92 1010.48 1009.72 1008.45 1007.86 1007.37 1006.66 1005.98 1005.53 1005.67 1005.71 1005.18 1004.38 1005.31
Wind_Speed
9 14 11 11 11 11 10 10 10 8 8 12 15 16 17 17 17 16 16 15 13 15 14 13 11 10 10 9 9 8 6 5 6 7 8 9 10 11 10 8 9 13 11
10 14 13 13 12 11 11 11 10 9 8 11 14 15 15 16 17 17 16 16 14 15 15 13 11 11 10 9 8 8 7 6 6 6 8 9 9 10 9 7 7 15 10
4 12 15 11 11 10 10 11 11 10 10 10 12 14 15 14 15 16 16 16 14 15 16 13 11 9 9 8 8 7 7 6 6 6 8 10 11 9 8 4 6 9 9
2 12 13 10 11 10 9 9 10 11 11 10 11 12 13 14 14 14 14 14 13 14 16 15 12 10 8 8 8 7 6 6 7 7 10 4 12 10 9 7 7 8 9
6 9 12 9 9 9 9 9 9 9 10 10 10 11 13 14 13 13 13 12 12 13 14 16 14 10 9 8 7 7 7 6 7 9 3 4 7 12 10 11 9 7 9
5 5 12 8 9 9 10 10 10 9 9 10 10 10 12 13 13 11 10 12 13 14 14 14 12 11 10 9 8 7 7 8 9 10 6 6 5 13 10 10 7 9 8
4 3 9 9 10 9 9 9 9 9 8 9 9 9 10 11 11 10 9 10 11 12 11 11 10 10 9 8 8 8 8 8 10 5 6 7 7 10 11 10 10 9 9
3 1 3 7 6 7 7 7 6 6 6 6 7 8 8 9 9 9 10 9 9 9 9 8 7 7 7 8 8 8 7 8 9 6 6 8 11 10 11 10 11 11 11
2 1 2 4 8 6 5 6 6 5 7 7 7 6 7 7 8 9 10 10 9 8 7 7 7 7 8 8 8 7 6 8 11 6 7 6 13 11 12 8 12 12 12
3 1 4 5 6 6 7 8 7 7 7 7 7 4 4 4 6 8 8 10 10 10 9 8 8 8 8 6 6 6 6 6 12 8 6 4 11 12 12 9 12 12 14
3 4 4 5 6 6 6 6 8 7 6 6 8 8 8 10 12 14 13 9 11 9 10 10 10 9 7 7 6 6 6 8 9 8 5 12 7 11 12 9 10 11 13
6 6 4 5 5 5 5 6 6 7 8 9 10 10 10 11 11 10 10 10 9 9 7 8 10 9 8 9 9 9 8 10 7 7 6 10 8 9 11 8 10 11 13
10 7 10 6 5 5 5 4 4 2 4 5 9 9 10 7 9 9 8 9 10 11 9 9 9 9 12 10 8 7 9 9 7 6 5 7 8 10 12 11 13 14 14
11 14 13 14 8 5 5 4 2 3 3 3 4 8 6 6 9 9 8 8 8 9 12 11 8 11 12 12 11 10 10 9 7 6 6 9 9 11 12 13 12 13 14
13 14 15 15 13 12 4 3 3 2 2 3 5 5 6 6 7 7 6 7 7 8 9 10 10 10 12 12 11 13 13 12 12 7 6 12 11 12 13 14 14 14 12
13 14 13 14 14 11 10 11 8 5 4 3 4 4 5 5 5 6 7 10 10 9 9 8 8 9 10 10 11 12 13 12 12 12 9 8 13 13 13 14 16 16 16
12 14 15 14 14 12 11 10 7 7 8 7 6 10 10 8 9 9 9 8 9 8 11 8 10 9 9 8 9 8 10 13 14 14 12 10 9 13 13 14 14 15 16
13 14 14 13 14 12 11 9 8 7 5 6 6 6 9 9 9 8 7 7 6 6 6 5 9 9 9 6 8 6 10 10 14 15 13 12 10 9 11 14 15 14 12
13 14 14 15 16 14 11 6 6 7 7 7 7 7 11 10 11 9 6 6 9 6 7 9 10 11 7 7 9 9 8 12 12 12 16 15 14 11 9 14 16 15 14
12 13 13 12 15 12 9 6 5 6 5 5 6 8 10 8 10 9 6 7 7 5 7 10 12 10 9 8 8 8 8 11 14 13 15 13 14 15 13 11 8 11 15
12 13 15 15 16 12 10 9 6 7 6 6 7 10 11 11 10 9 7 8 7 7 7 8 8 11 12 13 8 7 13 11 20 13 11 12 14 14 13 12 9 9 9
12 13 14 15 15 13 9 8 7 7 5 5 7 8 10 12 11 10 9 8 8 7 9 9 8 5 6 7 6 9 9 12 12 13 10 14 15 12 12 13 13 13 11
13 13 13 13 14 14 14 8 8 5 6 6 8 7 10 11 11 10 10 9 9 8 8 10 9 9 7 6 9 8 7 10 13 9 14 11 15 12 13 12 13 14 13
9 8 11 12 13 13 14 10 12 9 9 8 8 8 9 10 11 11 11 11 11 9 9 10 9 9 7 9 6 8 15 15 9 9 6 11 12 10 13 11 13 15 13
10 10 9 10 11 12 12 12 9 9 9 8 8 13 11 10 10 10 10 12 11 9 10 11 13 12 10 10 10 8 8 12 15 14 8 8 9 8 14 11 13 12 15
10 10 9 11 11 12 11 12 12 12 12 10 11 10 10 10 9 10 11 12 11 10 11 11 13 14 12 11 11 12 11 6 7 12 14 14 14 13 13 12 12 12 14
Wind_Direction
143 136 156 153 145 134 124 117 126 140 168 167 164 163 158 157 153 149 151 154 155 152 149 148 143 138 130 124 122 114 120 120 122 122 121 126 125 125 124 132 180 122 129
134 153 162 158 156 149 139 130 134 143 167 176 169 166 163 162 158 156 158 160 164 162 152 153 149 142 134 132 126 130 131 133 138 126 122 130 131 135 134 162 267 113 137
158 156 170 158 157 154 151 142 140 146 162 174 174 167 166 167 165 164 165 166 166 166 160 166 163 150 142 137 135 139 139 142 140 139 185 180 143 142 145 167 96 118 133
196 162 164 154 155 157 157 152 148 147 158 164 170 169 169 170 172 171 171 171 169 169 162 175 179 166 158 152 148 146 149 152 149 163 208 174 125 148 159 166 153 148 146
121 146 122 149 148 152 158 162 162 153 156 161 166 169 174 176 177 176 176 176 176 173 174 183 182 171 172 168 165 165 164 168 166 203 154 184 146 143 175 173 171 166 181
93 145 119 151 156 161 165 173 171 170 170 168 170 170 177 179 178 181 184 182 181 182 184 190 186 171 185 179 177 185 181 179 190 212 169 124 222 143 177 177 197 184 196
75 129 159 160 167 173 175 175 180 185 183 180 179 178 178 181 181 177 187 194 192 184 189 195 183 179 188 189 186 192 195 199 225 162 174 163 176 157 183 179 187 185 186
20 154 199 164 181 178 179 184 190 198 202 201 194 190 183 183 181 179 182 196 202 190 187 195 187 186 198 194 195 203 200 221 222 198 211 182 122 169 199 187 184 189 187
22 340 224 228 182 187 192 186 192 201 209 216 211 206 204 191 185 187 189 195 200 204 192 190 184 191 207 207 203 209 209 223 265 234 213 214 138 186 205 221 189 189 192
315 218 221 215 213 207 199 190 197 198 203 208 213 205 208 191 203 199 203 203 206 201 201 193 194 198 206 222 213 214 221 236 246 255 225 208 147 195 210 208 192 194 195
291 282 248 231 214 216 220 190 194 213 219 207 211 208 195 222 209 211 208 194 212 208 207 195 201 194 192 216 220 217 226 239 235 243 241 118 166 202 205 200 196 195 199
314 320 269 272 256 237 236 227 222 222 223 219 219 212 215 221 223 228 209 191 205 222 220 205 200 193 195 233 198 196 235 247 248 260 255 133 188 216 208 214 223 209 203
341 324 349 331 286 270 254 245 230 256 239 247 251 232 227 220 228 213 226 203 219 214 225 206 203 214 219 229 234 224 224 240 245 243 242 153 209 226 233 237 227 218 208
16 16 5 359 334 317 293 259 333 260 245 246 236 236 250 219 217 235 227 224 215 213 214 214 215 226 223 226 239 241 236 247 244 241 238 164 219 229 239 245 235 218 207
26 17 12 14 10 354 341 321 282 266 275 288 256 263 242 255 243 221 222 227 220 228 221 221 213 222 225 226 232 241 243 240 246 248 245 172 203 222 234 243 243 232 220
25 24 17 21 15 19 21 15 6 13 356 332 2 349 276 276 258 242 216 219 222 218 226 229 225 225 226 240 238 239 251 254 247 246 243 221 199 215 223 232 241 242 233
32 28 23 23 20 20 26 27 30 22 29 27 25 26 18 18 3 299 260 255 242 234 231 224 231 227 231 235 232 249 243 252 255 249 244 247 214 208 214 219 227 238 232
28 26 28 23 21 21 21 34 34 19 50 43 35 30 11 11 3 338 334 324 304 271 269 207 236 219 211 207 249 232 253 249 246 249 246 244 241 241 202 211 216 221 221
34 28 29 27 23 16 19 22 45 37 33 31 23 21 11 9 2 344 338 346 345 312 249 244 236 238 222 201 209 230 235 245 246 247 248 242 236 239 228 199 200 206 205
39 35 33 31 24 20 19 358 24 29 31 30 25 16 3 2 357 344 332 336 327 314 307 283 259 235 243 239 225 223 228 239 239 230 238 235 239 227 231 232 195 219 208
42 35 31 28 24 20 19 13 4 4 5 2 7 3 357 353 355 345 341 331 327 310 301 301 316 298 257 244 253 249 247 254 229 233 240 236 227 234 216 225 216 229 198
45 35 30 27 25 22 15 10 355 339 3 343 356 350 355 347 349 342 339 328 328 312 303 299 288 304 284 273 242 245 255 245 238 241 229 233 225 217 213 212 227 229 231
37 30 27 23 18 18 4 7 1 356 342 1 346 344 346 342 341 338 333 327 322 314 313 309 295 283 279 294 281 253 240 245 255 209 227 230 219 209 212 185 220 226 225
35 28 23 21 16 14 11 9 5 356 347 347 336 338 327 337 334 334 332 338 329 320 311 302 298 294 276 273 293 258 259 269 274 244 233 220 226 217 210 196 208 226 219
32 27 24 18 21 14 4 0 355 356 343 339 336 333 331 331 327 329 338 326 321 316 312 307 296 296 295 284 273 271 287 266 251 253 251 208 221 223 235 219 216 217 221
38 29 22 15 22 16 13 6 360 354 342 343 346 334 336 325 328 334 335 321 318 311 309 301 292 285 280 277 282 270 254 266 263 246 244 242 225 220 228 246 244 234 244